Simultaneous Nadir Overpasses (SNOs) Predictions

Prediction of SNOs between NOAA-21 and PACE Satellite Orbit:

Table of predicted SNOs for the next 14.0 days since TLE Epoch: 8/30/2024
Index Date (NOAA-21) Time (NOAA-21) Lat,Lon (NOAA-21) SZA (NOAA-21 ) Date (PACE) Time (PACE) Lat,Lon (PACE) SZA (PACE ) Distance(km) Time Diff (sec)
1 08/31/2024 00:02:58 -79.82, -37.93 106.62 08/31/2024 00:03:10 -79.82, -37.95 106.62 0.32 12
2 09/02/2024 03:38:41 79.93, 87.05 74.36 09/02/2024 03:39:40 79.93, 87.09 74.32 0.99 59
3 09/02/2024 04:29:20 -79.76,-103.98 105.95 09/02/2024 04:28:44 -79.76,-103.90 105.95 1.70 36
4 09/04/2024 08:05:00 79.80, 21.81 74.88 09/04/2024 08:05:11 79.80, 21.67 74.89 2.94 11
5 09/06/2024 11:40:43 -79.94, 146.54 104.09 09/06/2024 11:41:39 -79.94, 146.52 104.12 0.58 56
6 09/06/2024 12:31:22 79.75, -44.38 75.59 09/06/2024 12:30:43 79.75, -44.34 75.60 0.77 39
7 09/08/2024 16:07:02 -79.81, 81.16 103.53 09/08/2024 16:07:08 -79.82, 81.08 103.52 1.59 6
8 09/10/2024 19:42:45 79.96,-154.16 77.53 09/10/2024 19:43:34 79.95,-154.03 77.49 2.66 49
9 09/10/2024 20:33:22 -79.72, 15.40 102.89 09/10/2024 20:32:37 -79.73, 15.33 102.85 1.63 45



Historial Predications of SNOs between NOAA-21 and PACE
